Location: Songkhla
(7.2000°N, 100.6000°E)
Time: 10:00:02
(UTC+07:00)

Daily predictions for brighter satellites

Satellite Brightness Start Highest point End
(mag) Time Altitude Azimuth Time Altitude Azimuth Time Altitude Azimuth
BLOCK DM-SL R/B 3.9 17:18:39 10° WSW 17:23:13 53° SSE 17:56:55 10° E
H-2A R/B 3.1 18:53:30 10° SSE 18:57:15 47° ENE 19:00:58 10° N
Cosmos 1892 Rocket 3.5 18:53:49 10° S 18:58:08 69° E 19:02:29 10° N
Nadezhda 4 Rocket 4.0 19:00:41 10° N 19:06:53 66° E 19:13:01 10° SSE
Cosmos 2333 Rocket 4.1 19:02:00 10° NW 19:06:58 30° WSW 19:11:55 10° SSW
EO 1 Del DPAF 3.1 19:03:53 10° NNE 19:07:40 82° ESE 19:11:28 10° S
YAOGAN 1 3.6 19:04:55 10° S 19:09:05 48° WSW 19:13:14 10° NNW
ARIANE 5 R/B 4.3 19:06:42 10° WSW 19:11:01 45° SSE 19:25:52 10° E
MONITOR-E 4.3 19:08:05 10° S 19:11:02 72° W 19:14:00 10° NNW
ASC 2 Rocket 4.2 19:11:37 10° WSW 19:20:27 86° NNW 19:26:07 10° ENE
Cosmos 2279 Rocket 4.0 19:16:40 10° S 19:22:44 58° E 19:28:45 10° NNE
FengYun 1-2 T 4.2 19:20:59 10° SSE 19:26:34 71° ENE 19:32:04 10° N
Intercosmos 25 3.5 19:24:45 10° SSE 19:28:12 37° E 19:31:09 10° NNE
DELTA 2 R/B (1) 3.6 19:24:35 10° NW 19:30:06 73° NE 19:33:59 20° ESE
CZ-4 R/B 4.3 19:28:21 10° SW 19:30:16 13° W 19:32:10 10° WNW
Cosmos 972 Rocket 4.1 19:25:44 10° SSW 19:30:54 74° W 19:35:47 10° N
Cosmos 1092 Rocket 3.9 19:25:22 10° N 19:31:32 71° E 19:37:38 10° S
Aureole 1 Rocket 4.4 19:36:00 12° NE 19:36:00 12° NE 19:36:18 10° NE
YAOGAN 6 4.3 19:36:10 17° ENE 19:36:10 17° ENE 19:38:15 10° NE
Cosmos 1626 Rocket 3.5 19:35:31 10° S 19:39:56 67° E 19:44:22 10° N
GENESIS II 4.0 19:38:21 10° SSW 19:42:11 83° ESE 19:46:02 10° NNE
Cosmos 2180 Rocket 4.4 19:37:15 10° S 19:43:29 72° E 19:49:38 10° N
Thor Agena Rocket 3.4 19:40:03 10° NNE 19:45:05 77° ESE 19:50:07 10° S
Ariane H10 4.1 19:27:53 10° W 19:46:37 75° S 19:48:53 29° E
Cosmos 1844 Rocket 3.5 19:48:00 27° ESE 19:48:07 27° ESE 19:52:48 10° NE
HJ-1C 3.2 19:47:11 31° SSE 19:48:40 79° E 19:52:02 10° N
SEDSat Delta rocket 4.3 19:43:51 10° WSW 19:49:38 53° NNW 19:54:39 10° NE
GPS 2-17 Rocket1 4.0 19:45:33 10° NW 19:50:02 40° NNE 19:52:17 24° ENE
Cosmos 1707 2.7 19:51:05 33° SSE 19:52:33 56° E 19:56:21 10° NNE
Cosmos 1602 Rocket 3.5 19:49:48 10° S 19:54:14 89° W 19:58:42 10° N
Lacrosse 5 3.9 19:50:30 10° WSW 19:54:52 29° WNW 19:59:15 10° N
Cosmos 1378 3.5 19:52:40 10° SSW 19:56:22 64° W 20:00:02 10° N
Cosmos 1758 4.2 19:54:01 10° NNE 19:57:05 32° ENE 19:57:05 32° ENE
Envisat 2.9 19:54:31 20° SSE 19:58:02 85° ENE 20:03:06 10° N
ARIANE 5 R/B 3.7 19:39:49 10° WSW 20:00:24 31° SSW 20:03:03 23° SSE
ARIANE 5 DEB (SYLDA) 4.2 19:55:29 10° WSW 20:00:53 50° SSE 20:08:06 26° ESE
Ariane H10+ 3.1 20:01:15 10° SW 20:03:23 16° SSW 20:03:23 16° SSW
Meteor 2-5 Rocket 4.1 20:03:22 37° SE 20:04:50 44° E 20:10:25 10° NNE
Cosmos 1655 Rocket 4.2 20:00:15 10° NNE 20:06:12 49° E 20:07:53 39° SE
SL-16 R/B 2.9 20:01:32 10° NNW 20:07:01 51° WSW 20:11:25 16° S
Resurs 01 Rocket 3.0 20:11:07 24° NE 20:11:07 24° NE 20:13:34 10° NNE
Cosmos 1048 Rocket 3.8 20:05:09 10° S 20:10:22 82° ESE 20:15:39 10° NNE
CAT/Thesee 3.9 20:09:30 10° W 20:11:19 51° NNW 20:11:19 51° NNW
GOES 2 Rocket 2.8 20:08:30 10° WNW 20:12:39 73° SSW 20:12:55 69° S
Ariane H10+ 4.0 20:08:54 10° WSW 20:13:52 24° SSW 20:13:52 24° SSW
SJ-6B 3.1 20:15:32 53° SW 20:16:07 61° W 20:19:55 10° NNW
Cosmos 1953 3.7 20:13:19 10° NNE 20:15:22 27° NNE 20:15:22 27° NNE
BREEZE M DEB (TANK) 3.3 20:17:32 10° NW 20:19:53 33° NW 20:19:53 33° NW
Cosmos 1400 Rocket 3.8 20:24:16 29° SW 20:25:55 46° W 20:29:49 10° N
SWIFT 3.5 20:22:40 10° NW 20:26:18 35° N 20:26:18 35° N
ATLAS 2AS CENTAUR R/B 3.4 20:27:24 10° SW 20:34:27 58° WNW 20:42:06 10° NNE
USA 186 4.3 20:42:02 22° NW 20:42:02 22° NW 20:43:33 10° NNW
Cosmos 1371 Rocket 4.1 20:35:51 10° NNW 20:40:54 69° W 20:40:54 69° W
Cosmos 1603 3.7 20:36:53 10° NNW 20:42:17 80° N 20:42:17 80° N
Cosmos 2056 Rocket 4.1 20:49:17 10° NNW 20:53:33 55° NW 20:53:33 55° NW
Ariane H10-3 4.5 20:57:57 10° SW 20:58:23 11° SW 20:58:23 11° SW
CZ-3C R/B 3.7 21:38:06 10° W 21:47:25 27° NW 21:47:25 27° NW
